This is the latest recevied weather packets stored in our database for station/object N9CQL. If no packets are shown the sender has not sent any weather packets the latest 10 day(s).
| Time | Temp. | Humidity | Pressure | Rain* | Wind** | Luminosity | Snow |
|---|---|---|---|---|---|---|---|
| 1777558756 | 10° C | 73% | 1016 hPa | 0 mm | - | 237 W/m² | - |
| 1777558453 | 10° C | 75% | 1016.1 hPa | 0 mm | - | 103 W/m² | - |
| 1777558149 | 9.44° C | 76% | 1016.1 hPa | 0 mm | - | 181 W/m² | - |
| 1777557845 | 8.89° C | 77% | 1015.9 hPa | 0 mm | - | 92 W/m² | - |
| 1777557543 | 8.89° C | 79% | 1016 hPa | 0 mm | - | 150 W/m² | - |
| 1777557238 | 8.33° C | 81% | 1016 hPa | 0 mm | - | 111 W/m² | - |
| 1777556934 | 7.78° C | 82% | 1015.9 hPa | 0 mm | - | 91 W/m² | - |
| 1777556630 | 7.78° C | 85% | 1016 hPa | 0 mm | - | 57 W/m² | - |
| 1777556324 | 7.22° C | 88% | 1015.9 hPa | 0 mm | - | 64 W/m² | - |
| 1777556021 | 6.67° C | 92% | 1016 hPa | 0 mm | - | 53 W/m² | - |
| 1777555716 | 6.67° C | 93% | 1016 hPa | 0 mm | - | 50 W/m² | - |
| 1777555413 | 6.11° C | 94% | 1016.2 hPa | 0 mm | - | 51 W/m² | - |
| 1777555109 | 5.56° C | 95% | 1015.9 hPa | 0 mm | - | 47 W/m² | - |
| 1777554807 | 5.56° C | 95% | 1015.9 hPa | 0 mm | - | 48 W/m² | - |
| 1777554504 | 5.56° C | 96% | 1016.1 hPa | 0 mm | - | 50 W/m² | - |
| 1777554201 | 5° C | 96% | 1016 hPa | 0 mm | - | 46 W/m² | - |
| 1777553897 | 5° C | 96% | 1016.1 hPa | 0 mm | - | 43 W/m² | - |
| 1777553594 | 5° C | 96% | 1016.2 hPa | 0 mm | - | 41 W/m² | - |
| 1777553290 | 5° C | 96% | 1016 hPa | 0 mm | - | 39 W/m² | - |
| 1777552986 | 5° C | 96% | 1015.9 hPa | 0 mm | - | 39 W/m² | - |
| 1777552685 | 4.44° C | 96% | 1015.9 hPa | 0 mm | - | 38 W/m² | - |
| 1777552383 | 4.44° C | 96% | 1015.8 hPa | 0 mm | - | 37 W/m² | - |
| 1777552079 | 4.44° C | 96% | 1016.1 hPa | 0 mm | - | 39 W/m² | - |
| 1777551776 | 4.44° C | 96% | 1015.9 hPa | 0 mm | - | 49 W/m² | - |
| 1777551474 | 3.89° C | 96% | 1016.1 hPa | 0 mm | - | 77 W/m² | - |
* Rain latest hour (hover to see other rain measurements)
** Current wind speed in m/s (hover to see current wind gust speed)